HUGOCO Weather Reports


time (UTC)temp
C
wind
direction
speed
KPH
gust
KPH
rain 1hr
cm
rain 24hr
cm
rain mn
cm
humidity
%
barometer
mb
20260505101059 3 359 17.7 20.9 0.00 0.00 0.00 85 1008.4
20260505100559 3 359 19.3 22.5 0.00 0.00 0.00 85 1008.3
20260505100059 4 359 20.9 25.7 0.00 0.00 0.00 85 1008.2
20260505095559 4 359 22.5 27.4 0.00 0.00 0.00 84 1008.2
20260505095059 4 359 24.1 29.0 0.00 0.00 0.00 84 1008.2
20260505094559 4 359 24.1 27.4 0.00 0.00 0.00 84 1008.0
20260505094059 5 359 24.1 27.4 0.00 0.00 0.00 85 1007.7
20260505093559 5 359 27.4 29.0 0.00 0.00 0.00 85 1007.6
20260505093059 5 359 29.0 33.8 0.00 0.00 0.00 84 1007.5
20260505092559 5 359 30.6 35.4 0.00 0.00 0.00 83 1007.6
20260505092059 5 359 30.6 37.0 0.00 0.00 0.00 82 1007.6
20260505091559 5 359 27.4 37.0 0.00 0.00 0.00 81 1007.6
20260505091059 6 359 27.4 32.2 0.00 0.00 0.00 80 1007.7
20260505090559 6 359 27.4 32.2 0.00 0.00 0.00 79 1007.7
20260505090059 6 359 25.7 33.8 0.00 0.00 0.00 79 1007.6
20260505085559 6 359 24.1 32.2 0.00 0.00 0.00 78 1007.5
20260505085059 6 359 24.1 27.4 0.00 0.00 0.00 77 1007.6
20260505084559 6 359 25.7 30.6 0.00 0.00 0.00 76 1007.6
20260505084059 6 359 27.4 35.4 0.00 0.00 0.00 76 1007.6
20260505083559 6 359 29.0 32.2 0.00 0.00 0.00 75 1007.4
20260505083059 6 359 29.0 35.4 0.00 0.00 0.00 74 1007.1
20260505082559 7 359 27.4 35.4 0.00 0.00 0.00 74 1007.2
20260505082100 7 359 29.0 37.0 0.00 0.00 0.00 74 1007.6
20260505081559 7 359 30.6 37.0 0.00 0.00 0.00 73 1007.3
20260505081059 7 359 30.6 35.4 0.00 0.00 0.00 73 1007.9
20260505080559 7 359 30.6 37.0 0.00 0.00 0.00 73 1007.6
20260505080059 7 359 33.8 37.0 0.00 0.00 0.00 73 1007.7
20260505075655 7 359 32.2 38.6 0.00 0.00 0.00 72 1007.8
20260505075559 7 359 32.2 38.6 0.00 0.00 0.00 72 1007.8
20260505075059 7 359 30.6 40.2 0.00 0.00 0.00 71 1007.9
20260505074559 7 359 30.6 35.4 0.00 0.00 0.00 71 1007.9
20260505074100 7 359 32.2 37.0 0.00 0.00 0.00 70 1008.0
20260505073600 8 359 29.0 40.2 0.00 0.00 0.00 67 1008.0
20260505073100 8 359 30.6 35.4 0.00 0.00 0.00 66 1008.0
20260505072600 8 359 33.8 40.2 0.00 0.00 0.00 65 1007.8
20260505072100 8 359 32.2 41.8 0.00 0.00 0.00 63 1007.6
20260505071600 9 359 27.4 38.6 0.00 0.00 0.00 61 1007.7
20260505071100 10 359 24.1 29.0 0.00 0.00 0.00 58 1007.6
20260505070600 10 359 25.7 29.0 0.00 0.00 0.00 58 1007.4
20260505070100 10 359 27.4 33.8 0.00 0.00 0.00 57 1007.4
20260505065655 10 359 25.7 32.2 0.00 0.00 0.00 57 1007.4
20260505065600 10 359 25.7 32.2 0.00 0.00 0.00 57 1007.4
20260505065100 10 359 24.1 32.2 0.00 0.00 0.00 57 1007.2
20260505064600 10 359 20.9 27.4 0.00 0.00 0.00 57 1007.1
20260505064100 10 359 20.9 24.1 0.00 0.00 0.00 56 1007.2
20260505063600 10 359 19.3 25.7 0.00 0.00 0.00 55 1007.2
20260505063100 10 359 17.7 22.5 0.00 0.00 0.00 55 1007.2
20260505062655 10 359 16.1 22.5 0.00 0.00 0.00 54 1007.1
20260505062600 10 359 16.1 22.5 0.00 0.00 0.00 54 1007.1
20260505062100 10 359 14.5 20.9 0.00 0.00 0.00 53 1007.2
20260505061600 11 359 14.5 16.1 0.00 0.00 0.00 53 1007.7
20260505061100 11 359 19.3 24.1 0.00 0.00 0.00 53 1007.5
20260505060600 11 359 19.3 29.0 0.00 0.00 0.00 52 1007.0
20260505060100 11 359 16.1 19.3 0.00 0.00 0.00 52 1007.2
20260505055600 11 359 20.9 20.9 0.00 0.00 0.00 52 1007.0
20260505055100 11 359 24.1 29.0 0.00 0.00 0.00 51 1006.8
20260505054600 11 359 24.1 32.2 0.00 0.00 0.00 50 1006.7
20260505054100 11 359 22.5 30.6 0.00 0.00 0.00 51 1006.6
20260505053600 11 359 24.1 29.0 0.00 0.00 0.00 50 1006.7
20260505053100 11 359 25.7 29.0 0.00 0.00 0.00 50 1006.6
20260505052600 11 359 24.1 30.6 0.00 0.00 0.00 50 1006.5
20260505052100 11 359 24.1 30.6 0.00 0.00 0.00 50 1006.7
20260505051600 11 359 24.1 30.6 0.00 0.00 0.00 49 1006.8
20260505051100 11 359 25.7 29.0 0.00 0.00 0.00 49 1006.8
20260505050600 11 359 27.4 33.8 0.00 0.00 0.00 49 1006.7
20260505041600 12 359 35.4 45.1 0.00 0.00 0.00 48 1005.9
20260505041100 12 359 38.6 46.7 0.00 0.00 0.00 47 1005.5
20260505040600 12 359 38.6 45.1 0.00 0.00 0.00 47 1005.4
20260505040100 12 359 40.2 49.9 0.00 0.00 0.00 47 1005.5
20260505035600 12 359 41.8 48.3 0.00 0.00 0.00 46 1005.3
20260505035100 12 359 41.8 51.5 0.00 0.00 0.00 46 1005.3
20260505034600 12 359 38.6 51.5 0.00 0.00 0.00 46 1005.1
20260505034100 12 359 43.5 46.7 0.00 0.00 0.00 46 1005.2
20260505033600 13 359 45.1 59.5 0.00 0.00 0.00 45 1005.3
20260505033100 13 359 41.8 53.1 0.00 0.00 0.00 45 1005.0
20260505032600 13 359 38.6 49.9 0.00 0.00 0.00 45 1005.0
20260505032100 13 359 35.4 45.1 0.00 0.00 0.00 45 1004.9
20260505031600 13 359 40.2 45.1 0.00 0.00 0.00 44 1004.7
20260505031142 13 359 43.5 61.2 0.00 0.00 0.00 43 1004.5
20260505031100 13 359 43.5 61.2 0.00 0.00 0.00 43 1004.5
20260505030600 13 359 40.2 51.5 0.00 0.00 0.00 44 1004.3
20260505030100 13 359 38.6 49.9 0.00 0.00 0.00 43 1004.1
20260505025600 14 359 35.4 49.9 0.00 0.00 0.00 43 1004.0
20260505025100 14 359 37.0 45.1 0.00 0.00 0.00 43 1003.9
20260505024600 14 359 45.1 56.3 0.00 0.00 0.00 42 1003.8
20260505024100 15 359 49.9 61.2 0.00 0.00 0.00 42 1003.7
20260505023600 15 359 45.1 62.8 0.00 0.00 0.00 41 1003.4
20260505023100 15 359 37.0 61.2 0.00 0.00 0.00 41 1003.3
20260505022635 16 359 32.2 43.5 0.00 0.00 0.00 40 1003.3
20260505022600 16 359 32.2 43.5 0.00 0.00 0.00 40 1003.3
20260505022100 16 359 27.4 38.6 0.00 0.00 0.00 40 1003.4
20260505021600 15 359 25.7 29.0 0.00 0.00 0.00 41 1003.3
20260505021100 15 359 24.1 33.8 0.00 0.00 0.00 41 1003.2
20260505020600 15 359 22.5 25.7 0.00 0.00 0.00 41 1003.0
20260505020100 15 359 22.5 27.4 0.00 0.00 0.00 40 1002.9
20260505015600 16 359 20.9 25.7 0.00 0.00 0.00 40 1002.9
20260505015100 16 359 20.9 24.1 0.00 0.00 0.00 40 1002.9
20260505014600 16 359 17.7 25.7 0.00 0.00 0.00 39 1002.9
20260505014100 16 359 14.5 20.9 0.00 0.00 0.00 38 1003.1
20260505013600 16 359 16.1 17.7 0.00 0.00 0.00 38 1002.9
20260505013100 16 359 22.5 24.1 0.00 0.00 0.00 38 1002.8
20260505012600 16 359 25.7 33.8 0.00 0.00 0.00 38 1003.0
20260505012100 17 359 19.3 33.8 0.00 0.00 0.00 36 1003.0
20260505011600 17 359 8.0 33.8 0.00 0.00 0.00 34 1003.0
20260505011100 18 359 9.7 12.9 0.00 0.00 0.00 30 1002.7
20260505010600 18 359 16.1 19.3 0.00 0.00 0.00 31 1002.7
20260505010100 17 359 30.6 33.8 0.00 0.00 0.00 30 1002.7
20260505005600 17 359 33.8 49.9 0.00 0.00 0.00 31 1002.8
20260505005100 18 359 22.5 30.6 0.00 0.00 0.00 28 1002.7
20260505004600 18 359 20.9 29.0 0.00 0.00 0.00 29 1002.7
20260505004100 18 359 24.1 32.2 0.00 0.00 0.00 27 1002.6
20260505003600 18 359 25.7 32.2 0.00 0.00 0.00 27 1002.7
20260505003100 18 359 27.4 38.6 0.00 0.00 0.00 29 1002.6
20260505002600 18 359 22.5 35.4 0.00 0.00 0.00 28 1002.4
20260505002100 19 359 19.3 25.7 0.00 0.00 0.00 27 1002.5
20260505001600 19 359 19.3 27.4 0.00 0.00 0.00 26 1002.3
20260505001101 19 359 20.9 33.8 0.00 0.00 0.00 27 1002.2
20260505000600 19 359 19.3 27.4 0.00 0.00 0.00 26 1002.2
20260505000100 19 359 12.9 32.2 0.00 0.00 0.00 27 1002.5
20260504235601 19 359 17.7 24.1 0.00 0.00 0.00 25 1002.3
20260504235101 19 359 27.4 30.6 0.00 0.00 0.00 26 1002.4
20260504234601 19 359 29.0 51.5 0.00 0.00 0.00 25 1002.4
20260504234101 20 359 24.1 32.2 0.00 0.00 0.00 25 1002.2
20260504233601 20 359 17.7 32.2 0.00 0.00 0.00 25 1002.2
20260504233101 20 359 17.7 25.7 0.00 0.00 0.00 24 1002.0
20260504232601 20 359 22.5 25.7 0.00 0.00 0.00 24 1001.8
20260504232101 20 359 24.1 29.0 0.00 0.00 0.00 23 1001.8
20260504231601 20 359 22.5 30.6 0.00 0.00 0.00 24 1001.7
20260504231101 20 359 24.1 27.4 0.00 0.00 0.00 24 1001.6
20260504230601 20 359 25.7 29.0 0.00 0.00 0.00 23 1001.5
20260504230101 20 359 25.7 33.8 0.00 0.00 0.00 23 1001.4
20260504225601 20 359 24.1 35.4 0.00 0.00 0.00 24 1001.2
20260504225101 20 359 22.5 27.4 0.00 0.00 0.00 23 1001.2
20260504224601 20 359 22.5 30.6 0.00 0.00 0.00 22 1001.4
20260504224101 20 359 24.1 33.8 0.00 0.00 0.00 23 1001.3
20260504223601 20 359 27.4 37.0 0.00 0.00 0.00 23 1001.4
20260504223101 20 359 24.1 37.0 0.00 0.00 0.00 24 1001.4
20260504222601 20 359 24.1 32.2 0.00 0.00 0.00 23 1001.4
20260504222101 20 359 25.7 35.4 0.00 0.00 0.00 22 1001.3
20260504221601 20 359 24.1 35.4 0.00 0.00 0.00 23 1001.3
20260504221101 20 359 20.9 32.2 0.00 0.00 0.00 23 1001.3
20260504220601 20 359 20.9 27.4 0.00 0.00 0.00 22 1001.2
20260504220101 20 359 29.0 35.4 0.00 0.00 0.00 22 1001.4
20260504215601 20 359 29.0 45.1 0.00 0.00 0.00 22 1001.4
20260504215101 21 359 24.1 49.9 0.00 0.00 0.00 22 1001.2
20260504214601 21 359 29.0 35.4 0.00 0.00 0.00 21 1001.2
20260504214101 20 359 33.8 49.9 0.00 0.00 0.00 21 1001.4
20260504213601 21 359 32.2 37.0 0.00 0.00 0.00 22 1001.5
20260504213101 21 359 32.2 48.3 0.00 0.00 0.00 22 1001.6
20260504212601 21 359 29.0 41.8 0.00 0.00 0.00 21 1001.7
20260504212101 21 359 32.2 37.0 0.00 0.00 0.00 20 1001.7
20260504211601 21 359 33.8 46.7 0.00 0.00 0.00 20 1001.8
20260504211101 21 359 29.0 38.6 0.00 0.00 0.00 20 1002.0
20260504210601 21 359 12.9 30.6 0.00 0.00 0.00 19 1002.1
20260504210101 22 359 9.7 24.1 0.00 0.00 0.00 18 1002.2
20260504205601 21 359 6.4 22.5 0.00 0.00 0.00 19 1002.2
20260504205101 21 359 6.4 22.5 0.00 0.00 0.00 19 1002.3
20260504204601 21 359 12.9 20.9 0.00 0.00 0.00 18 1002.4
20260504204101 21 359 12.9 20.9 0.00 0.00 0.00 18 1002.3
20260504203601 21 359 11.3 22.5 0.00 0.00 0.00 18 1002.5
20260504203101 21 359 9.7 19.3 0.00 0.00 0.00 20 1002.5
20260504202601 21 359 11.3 19.3 0.00 0.00 0.00 19 1002.5
20260504202101 21 359 9.7 20.9 0.00 0.00 0.00 18 1002.7
20260504201601 21 359 4.8 16.1 0.00 0.00 0.00 19 1002.8
20260504201101 21 359 6.4 6.4 0.00 0.00 0.00 19 1002.8
20260504200601 21 359 16.1 24.1 0.00 0.00 0.00 19 1002.9
20260504195601 21 359 20.9 27.4 0.00 0.00 0.00 19 1002.8
20260504195101 21 359 25.7 35.4 0.00 0.00 0.00 18 1002.8
20260504194601 21 359 20.9 35.4 0.00 0.00 0.00 18 1002.7
20260504194101 21 359 12.9 25.7 0.00 0.00 0.00 19 1002.6
20260504193601 21 359 12.9 19.3 0.00 0.00 0.00 18 1002.8
20260504193101 21 359 14.5 27.4 0.00 0.00 0.00 18 1002.9
20260504192601 21 359 9.7 32.2 0.00 0.00 0.00 17 1002.6
20260504192101 21 359 8.0 14.5 0.00 0.00 0.00 17 1002.7
20260504191601 21 359 12.9 17.7 0.00 0.00 0.00 17 1002.6
20260504191101 21 359 14.5 25.7 0.00 0.00 0.00 17 1002.5
20260504190601 21 359 12.9 24.1 0.00 0.00 0.00 17 1002.6
20260504185601 21 359 11.3 16.1 0.00 0.00 0.00 18 1002.7
20260504185101 21 359 14.5 19.3 0.00 0.00 0.00 17 1002.8
20260504184601 21 359 12.9 25.7 0.00 0.00 0.00 17 1002.8
20260504184101 21 359 6.4 17.7 0.00 0.00 0.00 17 1002.8
20260504183601 21 359 3.2 9.7 0.00 0.00 0.00 17 1003.0
20260504183101 21 359 4.8 9.7 0.00 0.00 0.00 17 1003.1
20260504182601 21 359 9.7 9.7 0.00 0.00 0.00 17 1003.3
20260504182101 20 359 22.5 32.2 0.00 0.00 0.00 17 1003.3
20260504181601 20 359 27.4 53.1 0.00 0.00 0.00 18 1003.4
20260504181101 21 359 22.5 32.2 0.00 0.00 0.00 17 1003.3
20260504180601 21 359 20.9 29.0 0.00 0.00 0.00 17 1003.3
20260504175601 21 359 17.7 25.7 0.00 0.00 0.00 16 1003.2
20260504175101 21 359 12.9 25.7 0.00 0.00 0.00 17 1003.4
20260504174601 21 359 9.7 20.9 0.00 0.00 0.00 16 1003.5
20260504174101 21 359 8.0 16.1 0.00 0.00 0.00 15 1003.6
20260504173601 22 359 4.8 17.7 0.00 0.00 0.00 15 1003.6
20260504173101 21 359 6.4 8.0 0.00 0.00 0.00 16 1003.5
20260504172601 21 359 11.3 22.5 0.00 0.00 0.00 15 1003.7
20260504172101 21 359 16.1 27.4 0.00 0.00 0.00 15 1003.7
20260504171601 21 359 14.5 32.2 0.00 0.00 0.00 15 1003.7
20260504171101 21 359 12.9 29.0 0.00 0.00 0.00 15 1003.8
20260504170601 21 359 12.9 20.9 0.00 0.00 0.00 14 1003.9
20260504151102 18 359 8.0 14.5 0.00 0.00 0.00 29 1004.2
20260504150602 18 359 11.3 12.9 0.00 0.00 0.00 30 1004.4
20260504141157 16 359 8.0 14.5 0.00 0.00 0.00 31 1005.0
20260504141102 16 359 8.0 14.5 0.00 0.00 0.00 31 1005.0
20260504140602 16 359 9.7 9.7 0.00 0.00 0.00 34 1005.0
20260504130602 14 359 17.7 20.9 0.00 0.00 0.00 36 1005.2
20260504110602 12 359 17.7 19.3 0.00 0.00 0.00 36 1005.5